Regional Weather Roundup
Issued by NWS Boston, MA

Home | Current Version | Previous Version | Text Only | Print | Product List | Glossary On
Versions: 1 2 3 4 5 6 7 8 9 10 11 12 13 14 15 16 17 18 19 20 21 22 23 24 25 26 27 28 29 30 31 32 33 34 35 36 37 38 39 40 41 42 43 44 45 46 47 48 49 50
000
ASUS41 KBOX 050210
RWRBOX

REGIONAL WEATHER ROUNDUP
NATIONAL WEATHER SERVICE TAUNTON MA
1000 PM EDT TUE AUG 04 2015

NOTE:  "FAIR" INDICATES FEW OR NO CLOUDS BELOW 12,000 FEET WITH NO
SIGNIFICANT WEATHER AND/OR OBSTRUCTIONS TO VISIBILITY.  THE FOLLOWING
OBSERVATION LOCATIONS DO NOT REPORT PRESENT WEATHER...PROVINCETOWN...
SMITHFIELD...BLOCK ISLAND...KEENE...AND OXFORD.

MAZALL-050300-
EASTERN MASSACHUSETTS

CITY           SKY/WX    TMP DP  RH WIND       PRES   REMARKS
BOSTON         PTCLDY    72  65  78 SW9       29.87R
BEVERLY        PTCLDY    67  64  90 CALM      29.87R
LAWRENCE       MOCLDY    70  65  84 S5        29.89R
BEDFORD        CLOUDY    67  65  93 CALM      29.87R
BLUE HILL        N/A     68  64  87 W10       29.89R
NORWOOD        PTCLDY    67  66  97 SE6       29.88R
MARSHFIELD     MOCLDY    72  66  83 NW6       29.89R
PLYMOUTH       PTCLDY    73  70  90 W5        29.88R
TAUNTON        PTCLDY    67  65  93 CALM      29.88R
NEW BEDFORD    CLEAR     74  71  91 SW7       29.86S
$$

MAZALL-050300-
CAPE COD AND THE ISLANDS

CITY           SKY/WX    TMP DP  RH WIND       PRES   REMARKS
FALMOUTH       MOCLDY    75  73  94 W10       29.88S
HYANNIS        MOCLDY    78  72  81 W14       29.87R
CHATHAM        CLOUDY    75  74  96 SW10      29.89R
PROVINCETOWN   PTCLDY    73  66  78 W7        29.88R
NANTUCKET      CLOUDY    74  72  93 SW12      29.90R FOG
MARTHAS VNYRD  CLOUDY    75  73  93 SW10      29.88R FOG
$$

MAZALL-050300-
CENTRAL AND WESTERN MASSACHUSETTS

CITY           SKY/WX    TMP DP  RH WIND       PRES   REMARKS
WORCESTER      PTCLDY    68  63  84 W9        29.92R
FITCHBURG      MOCLDY    71  67  87 N3        29.90R
ORANGE         MOCLDY    67  64  90 CALM      29.90R
SPRINGFIELD    MOCLDY    68  66  94 CALM      29.89R
WESTFIELD      MOCLDY    66  64  93 CALM      29.91R
NORTH ADAMS    CLEAR     63  58  83 CALM      29.93R
PITTSFIELD     MOCLDY    63  60  90 CALM      29.94R
$$

RIZALL-050300-
RHODE ISLAND

CITY           SKY/WX    TMP DP  RH WIND       PRES   REMARKS
PROVIDENCE     CLEAR     76  63  64 NW5       29.89R
NEWPORT        CLEAR     73  72  96 SW3       29.88S FOG
BLOCK ISLAND     N/A     73  73 100 SW14G21   29.89R
SMITHFIELD     PTCLDY    66  63  88 SW3       29.90S
WESTERLY       CLEAR     74  71  91 VRB3      29.89R
$$

CTZALL-050300-
CONNECTICUT

CITY           SKY/WX    TMP DP  RH WIND       PRES   REMARKS
BRADLEY INTL   PTCLDY    70  61  73 CALM      29.90R
HARTFORD       CLOUDY    77  60  55 N7        29.90R
BRIDGEPORT     CLEAR     80  60  50 W6        29.89R
DANBURY        MOCLDY    71  61  70 SW3       29.94R
GROTON         CLEAR     72  64  76 N5        29.88R
NEW HAVEN      CLEAR     78  61  55 NW5       29.89R
CHESTER        NOT AVBL
MERIDEN        CLEAR     76  60  57 N3        29.90R
WILLIMANTIC    PTCLDY    70  67  90 CALM      29.91R
OXFORD         PTCLDY    70  57  64 N6        29.95R
$$

MEZ002-015-021-024-NHZ003-005-008-011-012-014-VTZ005-008-050300-
NORTHERN NEW ENGLAND

CITY           SKY/WX    TMP DP  RH WIND       PRES   REMARKS
PORTLAND ME    PTCLDY    63  61  93 W5        29.84S
BANGOR ME      PTCLDY    61  60  97 CALM      29.83S
CONCORD NH     PTCLDY    68  59  73 CALM      29.88R
MANCHESTER NH  PTCLDY    73  59  61 N5        29.86R
NASHUA NH      PTCLDY    69  63  81 W3        29.88R
PORTSMOUTH NH  CLOUDY    69  66  89 S3        29.85R
JAFFREY NH     PTCLDY    64  61  90 CALM      29.92R
KEENE NH       PTCLDY    66  55  68 CALM      29.90R
BURLINGTON VT  PTCLDY    67  56  67 E3        29.85R
MT. WASHINGTON FOG       45  45 100 W35         N/A  VSB 1/16
$$

NYZ052-076-050300-
EASTERN NEW YORK

CITY           SKY/WX    TMP DP  RH WIND       PRES   REMARKS
ALBANY         MOCLDY    72  55  55 W9        29.92R
NEW YORK CITY  PTCLDY    84  51  31 W5        29.89R
$$

ANZALL-050300-
MARINE OBSERVATIONS

STATION/POSITION TIME  TEMP    WIND        PRES    VSBY  WAVE
                       AIR SEA DIR/SP/G                  HT/PER
                 (UTC) (F)     (DEG/KT/KT) (MB)    (MI)  (FT/S)
BOSTON BUOY      0150   69 68  190/  8/  8 1012.0R         2/ 8
BUZZARDS BAY     0100          220/ 22/ 23 1011.5R
NANTUCKET SOUND  0150   75 72  230/ 16/ 17 1011.4R         2/ 3
MASS BAY-STELLWA 0104   68 64  250/  4/  6   N/A    1 7/8  2/ 8
ISLE OF SHOALS   0100   69     180/  7/  7 1010.3R
S OF BLOCK IS    0108      75                N/A           6/ 8
$$

......................KEY.........................
  SKY/WX - SKY CONDITION/PRESENT WEATHER
  TMP    - TEMPERATURE IN FAHRENHEIT
  DWPT   - DEWPOINT IN FAHRENHEIT
  RH     - RELATIVE HUMIDITY IN PERCENT
  WIND   - DIRECTION AND SPEED IN MPH
  PRES   - MEAN SEA LEVEL PRESSURE IN INCHES OF HG
  WCI    - WIND CHILL INDEX
  VSB    - VISIBILITY IN MILES
  HX     - HEAT INDEX
  TC     - TEMPERATURE IN CELSIUS
  VRB    - VARIABLE WIND DIRECTION
  N/A    - NOT AVAILABLE



USA.gov is the U.S. government's official web portal to all federal, state and local government web resources and services.